Theta_e
318 318 318 321 323 332 331 339 341 341 339 342 344 344 347 346 345 345 345 346 348 349 349 350 350 350 349 348 349 348 348 347 346 346 346 347 348 350 350 347 346 345 346 345
317 317 318 321 324 326 332 336 338 337 339 342 345 346 346 346 345 345 345 345 346 347 348 349 349 350 349 347 347 346 345 345 346 346 346 348 351 350 348 346 346 345 343 342
316 319 319 325 325 326 326 328 333 339 341 343 345 347 344 345 345 345 345 345 345 345 346 346 346 347 348 347 347 345 344 345 346 346 346 349 350 343 337 336 341 335 337 342
317 318 321 323 327 326 327 325 328 336 342 342 341 341 344 343 344 343 344 344 345 345 345 345 346 346 347 346 346 345 343 344 345 346 345 345 340 336 335 332 335 336 338 336
320 319 320 324 326 326 327 326 328 334 336 339 345 339 338 344 345 344 343 343 344 344 345 346 346 346 346 346 346 345 344 344 345 345 344 345 340 337 340 339 337 335 342 339
320 321 320 321 324 327 324 322 322 323 329 337 339 341 336 345 347 345 343 344 345 345 345 345 345 346 346 346 346 345 342 338 340 343 342 340 334 332 336 336 329 331 340 335
320 319 321 323 323 324 320 321 323 327 334 336 331 340 338 336 343 343 342 344 345 346 346 347 346 346 346 346 348 344 334 330 334 338 333 329 327 326 328 331 324 332 335 333
318 319 319 321 322 322 321 321 322 326 327 335 331 343 341 337 335 341 342 343 344 345 347 347 348 347 348 348 348 341 333 327 329 332 328 325 326 323 323 324 320 326 332 332
316 317 318 320 321 321 321 321 320 319 320 323 325 326 328 329 330 335 339 341 343 343 345 347 348 348 348 349 348 342 333 327 327 328 325 325 324 325 323 321 317 319 324 322
316 318 317 319 322 321 320 318 323 317 324 327 324 326 328 330 332 330 333 339 341 342 344 346 347 348 349 349 348 347 336 325 326 329 326 327 326 324 325 323 319 317 317 321
314 315 318 319 319 320 320 320 317 317 318 322 323 324 322 326 328 331 332 337 338 340 342 344 345 346 348 349 348 348 344 333 327 329 330 329 332 329 332 325 320 319 320 322
314 316 318 317 318 318 319 319 319 322 320 319 320 323 324 326 326 331 332 335 337 338 340 341 343 345 346 348 348 348 347 343 334 329 334 334 332 336 337 329 324 319 319 319
315 313 318 317 316 319 320 319 317 316 317 321 324 324 324 324 327 332 333 335 336 336 338 340 342 343 345 346 347 348 348 347 343 339 338 343 342 340 339 329 327 322 319 318
320 312 318 321 319 318 321 322 319 319 320 320 323 325 326 328 329 330 334 336 336 337 338 339 341 341 342 343 345 346 347 348 347 344 342 344 346 343 343 335 328 328 322 320
315 317 315 321 318 320 321 322 321 321 321 324 325 325 326 327 328 329 336 337 336 336 337 339 339 340 341 342 343 344 345 346 347 347 344 342 345 349 348 337 332 331 330 325
316 317 314 321 320 320 321 321 322 323 323 322 323 324 323 326 329 330 333 335 337 337 338 338 338 339 339 339 340 342 344 344 345 346 345 347 348 350 346 336 331 334 336 321
319 316 315 320 318 317 319 321 321 322 323 324 325 326 324 328 328 329 331 334 338 339 339 339 339 339 338 338 338 339 339 341 343 345 347 349 349 349 345 340 334 334 330 328
326 317 314 319 319 322 321 322 322 324 328 328 328 325 326 327 331 331 332 333 335 337 337 339 337 336 336 335 333 336 338 340 341 343 346 348 349 349 345 342 336 333 337 329
322 318 319 319 318 322 332 332 332 332 332 331 331 331 328 329 330 330 330 331 332 333 335 335 336 328 326 326 329 332 335 339 343 344 346 348 349 349 345 342 339 334 338 333
326 322 324 320 322 329 330 331 331 330 332 329 330 329 328 329 329 328 330 331 333 335 335 334 329 329 329 329 329 329 329 333 340 345 348 348 349 349 345 342 340 337 337 336
330 332 333 328 332 331 330 330 331 333 330 328 328 328 328 328 328 331 331 332 332 332 333 333 332 332 332 332 332 332 331 330 341 346 348 348 347 346 346 342 339 337 337 337
333 334 335 334 332 335 328 331 331 329 328 329 329 329 329 332 333 334 332 331 331 330 329 328 328 327 326 330 332 334 339 343 337 345 347 346 343 342 341 339 338 337 335 329
335 335 335 333 330 327 329 328 328 328 330 331 331 330 330 330 330 330 330 331 330 328 327 327 328 329 328 332 335 334 342 343 344 346 345 343 342 341 339 337 336 333 332 329
331 329 332 331 330 330 328 328 327 327 327 327 327 328 329 329 330 331 331 332 332 331 331 331 331 330 331 333 340 342 344 344 344 342 341 340 340 337 333 330 330 331 328 327
328 331 332 332 331 328 326 325 324 323 325 326 327 327 325 328 328 329 331 335 337 338 336 333 330 333 336 339 343 343 344 342 337 336 333 333 334 335 330 327 328 326 327 324
322 329 332 333 330 329 327 322 321 322 323 323 325 323 321 321 322 323 326 329 337 337 338 337 334 336 333 337 339 339 337 337 335 332 330 336 335 330 327 326 326 326 325 325
Wind_Speed
8 4 7 10 10 6 7 7 12 3 2 2 5 5 15 23 22 23 26 29 32 36 35 34 33 32 29 26 27 23 24 20 19 20 21 20 19 17 16 16 15 14 15 13
4 8 10 7 6 7 8 7 7 1 4 4 1 3 9 20 24 28 27 28 30 36 34 35 36 36 33 28 25 23 23 22 21 21 20 19 16 16 15 14 14 12 10 9
6 4 10 7 5 7 5 9 7 14 7 3 6 3 8 12 16 22 25 29 32 36 38 38 36 36 36 33 28 24 23 23 23 21 20 20 18 15 14 14 12 9 8 8
6 5 9 9 10 8 7 8 8 9 12 7 6 5 8 12 17 14 29 29 36 38 39 39 38 39 38 34 30 25 24 25 24 22 22 21 17 14 12 12 11 11 11 11
7 5 8 5 8 10 9 8 10 7 7 5 3 3 7 13 10 22 27 34 38 42 43 42 41 40 39 35 32 27 26 26 26 25 24 21 19 17 14 13 13 14 15 13
9 4 7 12 5 9 8 7 7 5 4 1 9 9 5 7 24 24 22 33 37 39 43 41 40 38 39 38 34 30 29 29 29 28 25 23 20 17 16 13 13 13 15 13
2 7 3 4 6 1 6 7 1 2 1 6 4 3 12 11 16 23 23 36 39 42 43 43 43 43 42 42 36 35 34 35 33 31 28 25 22 19 15 14 13 13 15 14
7 5 8 4 7 8 7 9 6 7 5 5 4 8 9 21 23 24 23 31 29 37 44 47 46 45 44 42 40 39 40 39 37 34 31 27 23 20 16 16 16 15 15 13
7 7 4 5 5 9 4 4 6 7 2 3 4 7 9 7 8 12 25 24 35 41 47 49 48 48 47 46 44 43 44 42 40 39 34 31 27 23 18 17 15 15 15 14
9 2 7 6 4 3 9 9 4 3 5 4 4 4 6 5 11 9 8 26 36 41 41 46 48 49 52 48 47 46 45 45 44 41 39 36 32 27 21 18 17 16 15 15
7 4 6 6 10 12 3 3 5 6 5 7 4 6 8 10 11 11 14 32 36 42 44 46 48 50 51 53 52 50 47 47 47 46 45 41 38 33 27 23 20 19 17 17
11 9 10 12 4 7 10 11 9 6 5 2 4 7 5 12 6 12 21 30 35 40 43 44 44 46 49 51 54 56 52 50 50 50 48 45 42 37 33 28 23 20 19 18
6 5 7 6 5 1 5 5 5 5 4 8 6 6 3 6 8 17 22 22 30 34 37 40 39 43 45 47 52 56 56 55 52 53 51 49 47 42 39 31 27 21 20 19
17 4 10 17 13 6 5 7 7 7 5 6 7 8 6 10 10 9 19 23 29 35 39 40 40 40 40 42 45 49 53 56 56 54 53 53 50 49 45 33 28 21 21 20
8 10 6 19 12 8 8 9 10 8 7 8 8 10 13 13 13 18 29 27 28 32 35 38 40 40 38 38 41 44 47 48 52 56 55 55 53 51 48 37 23 25 24 21
2 7 9 18 17 15 13 12 9 8 4 5 4 8 9 10 8 10 24 30 31 35 41 39 39 37 36 35 37 39 41 41 44 48 53 52 50 50 46 29 12 31 23 22
2 3 4 14 9 6 6 19 11 6 6 10 9 17 6 6 9 17 24 29 36 40 42 40 37 32 28 27 28 31 31 34 38 41 43 44 45 46 45 32 18 31 32 27
3 0 3 7 5 5 12 7 15 15 6 7 4 6 12 8 24 25 24 33 37 38 35 31 27 23 17 13 14 19 23 27 31 33 36 38 39 40 44 38 26 35 38 36
3 4 4 5 6 4 1 4 6 7 7 2 6 4 5 6 10 5 3 22 22 22 20 16 13 11 6 6 9 12 16 20 23 26 30 31 33 34 39 32 26 27 38 40
1 1 2 1 6 7 5 4 3 1 1 2 2 6 7 6 5 3 8 5 11 15 17 17 15 8 7 5 6 7 9 13 19 22 24 21 24 31 37 29 23 28 40 37
4 4 2 5 2 3 2 8 3 6 5 7 2 6 8 4 7 19 22 24 21 17 13 9 6 2 4 10 12 13 10 8 9 11 15 15 15 22 32 22 23 28 28 29
7 2 2 4 3 0 15 5 5 2 10 23 22 23 32 30 27 32 31 28 25 21 16 13 9 7 9 14 14 11 15 11 7 6 8 9 14 19 19 22 24 18 14 7
6 6 3 1 3 5 14 4 9 10 25 34 34 29 29 29 25 28 28 27 23 21 20 18 21 23 23 16 15 11 11 9 3 2 5 9 11 13 11 9 8 9 11 13
6 1 5 5 3 7 17 15 21 27 28 28 30 28 27 25 22 21 20 17 14 11 11 12 19 20 23 21 17 8 5 4 5 8 8 7 7 7 13 13 11 13 20 20
2 3 6 5 3 4 11 13 15 24 27 27 24 24 21 18 21 19 15 15 14 11 9 9 8 12 14 14 10 6 0 7 9 5 8 9 15 17 18 17 17 20 15 16
5 1 3 6 11 10 11 15 12 23 25 23 18 19 23 21 19 16 17 16 11 10 10 12 12 12 12 10 7 5 3 8 6 12 13 15 19 21 20 20 17 15 13 12
Wind_Direction
183 127 178 187 188 183 145 168 177 111 35 70 184 188 177 186 195 197 197 202 205 212 218 220 220 220 219 218 218 223 218 217 222 226 229 236 247 252 260 254 249 248 255 259
91 201 201 173 160 165 162 149 206 23 135 141 188 287 192 199 203 202 205 210 209 214 219 222 225 224 223 218 218 219 219 221 227 232 237 240 248 252 249 242 238 243 246 243
155 225 146 142 172 141 170 165 169 211 142 84 128 319 191 217 217 219 226 222 219 218 219 224 223 224 223 220 219 217 218 220 227 231 233 237 240 244 241 238 235 238 240 223
213 207 159 151 175 150 162 204 165 140 152 198 163 245 227 204 211 215 223 220 223 223 224 224 223 225 224 223 221 220 219 222 224 225 228 234 242 244 235 231 232 226 223 233
239 170 159 166 191 164 214 158 154 163 165 125 196 102 264 175 222 227 219 217 221 224 225 226 226 226 224 222 221 222 221 223 222 223 226 234 239 237 235 236 240 230 227 228
221 240 168 186 178 182 142 91 55 54 104 130 218 185 251 187 214 230 219 218 216 219 226 229 231 230 227 223 220 220 220 218 218 221 224 230 233 237 238 240 233 226 223 230
319 258 211 155 130 94 83 82 6 47 85 209 210 153 230 216 221 222 210 210 212 217 222 226 225 225 224 221 218 216 213 212 213 217 220 223 227 232 243 245 243 234 228 235
173 236 178 173 167 170 179 155 155 187 179 217 114 208 244 230 232 238 233 216 208 209 220 224 226 223 222 221 219 217 213 213 212 216 218 219 224 229 236 243 235 234 236 242
164 248 283 174 152 144 193 157 187 106 41 93 200 283 310 240 248 221 226 207 208 212 218 222 224 224 225 222 220 219 215 215 216 217 217 217 220 225 231 240 232 229 233 234
209 240 223 242 145 213 164 168 98 356 142 220 267 265 228 244 244 224 216 205 211 217 214 218 223 224 223 226 225 222 220 218 219 220 221 222 221 221 225 235 233 226 222 225
150 134 268 132 210 208 120 160 56 121 133 172 198 256 215 213 219 218 220 215 209 213 217 222 225 227 227 227 225 225 224 223 224 224 224 224 225 222 224 230 233 230 229 232
207 189 216 213 230 191 184 181 163 182 220 213 175 252 230 217 209 221 232 216 213 219 222 225 227 228 229 229 227 228 228 228 230 229 229 229 228 226 225 227 232 227 228 231
186 208 216 306 324 255 195 173 131 114 95 188 182 257 267 255 245 234 225 212 214 217 223 225 226 228 230 231 231 231 231 232 234 233 232 232 230 228 228 228 230 229 230 229
185 160 186 225 228 174 192 179 174 150 146 174 211 232 257 242 226 230 226 220 216 217 222 224 226 229 233 236 237 237 238 237 236 237 236 235 232 230 227 225 227 235 239 233
157 193 201 227 197 180 205 180 169 177 187 173 237 197 233 217 212 211 217 217 212 216 220 224 228 229 236 239 242 244 245 244 242 241 242 241 238 229 227 210 217 251 242 241
2 241 194 232 217 202 222 231 181 195 164 247 287 246 220 236 202 167 210 210 213 218 220 223 230 235 241 244 248 250 252 251 251 250 250 246 241 231 219 203 231 240 240 237
279 188 125 234 193 158 240 224 215 198 189 189 196 231 183 193 206 223 204 205 213 220 224 221 225 232 239 246 255 261 266 261 258 258 254 249 247 236 220 208 201 229 231 235
234 95 160 244 87 174 243 188 206 210 199 195 242 215 187 208 210 225 219 214 214 220 224 217 216 224 234 245 257 267 269 267 262 261 256 252 246 241 225 209 252 243 223 232
236 135 249 165 170 220 106 13 127 159 223 214 257 222 239 154 127 50 239 243 234 228 207 194 178 148 161 227 259 271 276 273 267 265 258 253 252 248 224 218 258 242 225 237
294 184 169 231 146 191 199 303 15 303 216 23 277 254 156 169 130 255 89 161 157 160 150 153 152 157 213 267 286 292 299 285 273 272 264 261 260 242 224 246 249 223 229 241
331 329 60 294 117 272 346 325 326 150 217 13 359 231 150 112 119 115 115 108 108 109 109 107 122 113 325 298 289 280 276 280 271 274 264 258 253 241 230 239 225 229 237 239
193 44 284 281 10 111 358 13 163 187 98 81 77 90 91 91 94 98 89 87 89 85 76 66 57 24 358 341 318 321 282 257 286 283 255 235 216 213 223 229 230 213 215 222
174 178 161 111 275 290 346 359 85 130 91 91 83 77 73 69 62 65 67 65 64 63 55 42 28 18 7 343 330 315 269 245 249 209 211 202 192 198 213 202 227 238 221 269
11 237 108 142 300 331 15 68 81 80 81 79 74 66 60 55 47 44 38 33 27 14 2 341 334 326 329 332 332 326 255 197 136 131 161 176 189 221 217 191 196 236 250 244
239 356 139 77 198 96 73 72 81 90 84 75 65 55 50 36 44 36 28 23 23 21 12 360 9 352 7 7 353 357 127 146 130 198 220 249 257 230 216 212 226 231 256 228
333 206 152 193 204 131 148 111 116 99 89 81 71 66 65 63 61 52 41 26 16 13 12 357 359 12 7 7 24 64 106 169 269 238 231 218 212 211 218 227 241 245 241 245